Location: Newark
(37.8333°N, 119.5000°W)
Time: 09:08:49
(UTC+00:00)

Tiros 1 despin weight - Pass Details

Date: 20 August 2019
Orbit: 594 x 642 km, 48.2° (Epoch: 19 September)

Event Time Altitude Azimuth Distance (km) Brightness Sun altitude
Rises 11:12:42 0° 295° (WNW) 2,867 - -22.7°
Reaches altitude 10° 11:15:27 10° 311° (NW) 1,972 - -22.3°
Exits shadow 11:15:38 11° 313° (NW) 1,917 ? -22.2°
Maximum altitude 11:18:59 22° 2° (N) 1,367 ? -21.7°
Drops below altitude 10° 11:22:33 10° 54° (NE) 1,996 ? -21.1°
Sets 11:25:21 0° 69° (ENE) 2,912 ? -20.7°
